Theta_e
313 312 312 311 310 309 304 299 301 308 303 294 290 291 297 302 301 302 301 303 302 301 302 301 301 301 302 308 303 300 301 296 296 300 301 303 299 297 295 292 291 291 295 295
314 313 312 312 310 309 304 298 299 310 303 294 291 294 299 299 298 299 299 301 304 303 300 298 304 307 312 312 306 298 300 293 290 294 297 298 300 300 295 294 292 291 292 296
314 314 314 312 311 310 303 302 302 305 302 297 297 297 300 300 305 302 302 301 301 298 301 303 302 304 310 312 312 325 308 293 294 295 295 297 298 302 301 297 293 293 295 301
314 314 314 313 311 310 303 304 300 301 299 301 301 302 301 303 303 305 302 299 300 299 296 299 300 304 305 310 315 310 301 295 296 296 299 301 302 303 303 299 298 297 299 305
314 314 314 314 311 309 306 302 300 302 297 300 300 298 300 302 305 304 302 299 303 302 298 300 298 302 304 302 306 305 305 300 302 298 305 305 304 307 307 306 308 308 306 307
314 314 314 314 311 306 298 302 304 302 298 300 299 299 301 303 304 307 307 304 305 304 305 308 306 305 305 307 305 305 306 301 299 296 302 303 299 305 306 307 308 310 307 310
314 314 314 314 312 309 303 299 301 297 295 298 300 303 305 303 304 304 309 310 305 309 311 308 304 302 301 302 305 307 303 301 299 297 298 293 302 309 313 313 315 316 315 313
313 314 314 314 313 311 305 301 301 296 291 297 299 301 299 300 302 305 308 311 311 310 304 300 297 297 298 300 302 307 306 302 298 297 295 299 305 310 310 307 310 316 314 316
312 312 314 314 313 311 301 301 303 300 295 293 302 298 297 295 296 300 307 312 310 306 300 299 293 292 295 295 298 303 303 302 299 297 293 293 301 311 315 313 303 316 320 317
312 312 312 314 314 311 306 301 303 302 297 300 300 297 295 299 296 297 301 301 307 309 299 296 294 294 298 295 294 295 296 296 296 295 294 298 306 313 316 299 301 314 323 323
311 312 312 313 313 313 308 301 304 303 298 300 305 305 300 300 297 294 297 302 302 305 302 300 297 294 296 296 297 297 297 295 295 295 293 294 311 310 306 310 314 323 323 325
311 311 312 312 313 311 309 298 303 306 300 301 306 309 310 307 307 299 297 298 300 303 298 301 301 301 298 296 295 300 297 300 298 300 300 306 309 307 311 314 322 322 322 322
311 311 311 311 312 311 309 303 299 302 300 302 301 303 308 307 309 307 298 296 298 298 303 302 302 299 298 294 295 297 300 304 300 302 304 308 311 312 318 323 323 327 327 325
311 311 311 311 311 311 309 300 300 300 300 296 299 308 303 308 305 308 308 302 302 301 302 299 298 299 304 298 298 297 301 302 300 301 303 309 312 313 318 324 328 329 328 328
311 311 311 311 310 309 307 306 302 304 302 295 297 302 305 306 306 305 305 303 301 299 298 295 295 298 298 296 296 296 302 299 297 297 302 306 307 313 323 323 324 326 323 318
311 311 310 310 310 309 302 304 307 307 306 296 289 297 305 308 308 306 305 305 303 303 300 298 299 301 298 293 292 299 301 303 302 303 311 307 312 316 318 316 318 319 317 316
310 309 309 309 309 301 300 304 308 307 305 300 296 297 304 306 306 305 306 303 302 301 299 299 299 300 300 294 293 300 303 304 306 311 313 310 311 309 313 312 314 314 315 315
309 309 308 309 308 306 305 309 309 306 303 302 295 297 299 306 300 299 305 304 302 302 299 299 297 298 298 294 299 304 306 307 306 308 311 312 310 311 310 312 313 311 311 312
308 309 310 307 305 305 307 316 312 308 302 297 297 295 292 304 301 300 302 302 297 301 298 298 299 295 293 299 302 303 305 305 305 308 310 311 309 307 308 310 311 310 310 311
308 303 305 303 306 311 312 306 303 304 303 299 295 298 297 302 298 297 298 297 295 293 297 300 297 295 302 306 305 305 306 309 307 306 304 306 305 307 308 309 311 311 311 312
297 294 297 300 306 305 303 300 299 300 297 299 300 299 298 304 298 297 298 295 295 290 294 296 294 294 301 306 307 309 309 311 312 310 308 310 310 309 309 310 311 311 312 311
298 299 303 299 303 300 299 297 299 298 296 300 299 301 302 303 302 298 297 294 295 291 299 295 291 297 303 306 308 309 309 312 313 314 311 312 312 312 311 311 311 310 310 310
302 299 300 300 300 292 294 292 294 294 299 300 301 299 302 303 302 297 296 293 291 298 293 295 296 300 305 306 311 311 312 313 312 312 313 313 312 313 313 311 312 313 314 313
298 299 289 296 294 296 297 297 297 300 301 301 301 299 299 300 298 298 294 296 297 292 290 294 298 301 303 307 311 310 311 312 311 310 310 309 308 308 311 312 313 313 311 311
298 299 289 295 299 300 303 304 302 304 302 300 299 300 300 297 296 296 296 294 292 294 292 297 300 301 302 306 308 308 309 310 310 310 309 308 308 308 309 310 310 310 310 307
300 300 296 299 298 299 301 302 302 303 301 302 300 296 295 293 295 295 294 293 291 294 297 299 300 298 300 300 307 311 313 312 312 311 310 310 308 308 309 309 309 308 307 306
299 296 299 298 298 297 299 302 301 303 300 296 297 294 294 297 295 294 296 294 296 298 300 300 299 299 299 301 304 307 309 311 311 310 309 309 307 306 309 308 311 313 313 313
Wind_Speed
21 24 26 26 26 27 6 2 3 2 2 6 1 2 6 4 3 3 5 5 11 6 3 6 5 8 7 6 7 12 11 8 9 15 1 1 2 3 6 7 6 3 4 8
21 24 26 26 27 19 3 2 2 3 4 3 2 5 5 4 3 6 4 4 6 4 5 4 7 4 4 6 5 6 8 3 1 12 10 3 5 5 5 4 4 6 6 8
22 22 23 26 28 21 3 3 3 5 4 0 3 1 6 4 4 6 7 8 6 4 7 8 5 3 2 5 3 3 7 4 8 11 8 3 2 4 3 6 4 3 7 6
21 22 23 25 27 18 2 3 1 2 2 2 4 2 3 7 6 5 4 6 7 6 5 4 7 5 3 3 4 4 5 3 2 2 1 1 4 4 3 6 6 6 5 9
21 21 22 24 28 13 3 3 3 5 2 4 4 3 2 4 5 5 7 7 10 5 7 7 4 1 1 3 5 4 5 1 1 2 0 3 2 6 7 1 6 2 3 6
20 20 21 22 22 15 3 3 2 4 3 4 2 2 3 6 9 6 8 7 1 2 1 4 4 5 3 1 3 2 3 3 5 5 6 5 4 2 2 2 3 2 6 4
19 20 20 20 17 16 2 3 1 3 4 1 2 4 7 9 6 5 7 5 4 3 9 2 5 5 6 4 1 4 6 5 2 3 4 1 6 1 6 10 0 6 2 6
19 19 19 19 17 15 2 2 2 2 3 3 5 6 5 11 6 3 4 4 4 8 3 5 6 6 5 5 5 0 3 5 3 5 5 4 3 5 5 4 4 4 6 8
19 20 19 19 18 16 1 3 1 2 2 5 2 4 3 3 5 7 4 7 8 5 4 4 4 3 5 4 5 5 4 7 4 3 4 9 8 1 4 1 3 1 7 13
19 19 20 19 18 16 4 3 0 3 1 5 2 3 3 2 2 3 6 9 10 6 4 3 3 3 3 3 5 3 3 4 4 2 5 6 6 2 1 5 8 2 9 13
19 19 19 19 18 17 8 5 2 3 2 8 6 5 3 2 1 1 6 6 5 5 6 2 2 2 2 2 3 3 4 4 3 2 1 6 1 0 4 6 2 1 7 11
19 19 19 18 17 16 10 3 2 1 4 8 4 10 14 10 16 4 2 4 3 4 4 2 1 2 2 1 2 4 2 5 4 7 7 4 3 2 2 4 4 1 6 8
19 20 20 19 15 13 7 4 3 2 3 6 4 4 5 5 10 7 4 3 4 1 4 4 1 1 2 1 2 3 5 2 1 3 3 4 5 4 2 4 4 3 7 14
19 20 21 19 16 11 7 3 2 1 0 2 9 4 6 7 4 11 11 3 3 2 3 2 2 2 4 4 4 2 5 4 0 5 5 3 6 5 2 4 6 7 7 11
20 20 20 19 17 14 5 4 4 2 3 3 7 11 6 10 5 9 9 5 3 2 2 2 3 2 2 1 2 3 3 5 4 6 6 4 6 7 8 9 8 10 11 8
21 22 21 18 14 10 2 3 1 3 4 1 5 5 8 8 8 3 2 2 3 3 4 3 3 4 3 1 3 6 5 4 6 5 2 5 1 5 4 6 8 7 8 12
23 24 22 17 10 1 3 4 2 3 1 2 5 6 6 5 4 4 4 4 2 2 2 3 3 2 4 3 4 8 10 9 8 6 6 5 4 4 6 10 10 12 11 9
24 25 22 14 3 4 3 3 3 6 3 2 1 6 5 6 4 4 4 4 3 4 1 2 1 1 2 1 5 8 8 10 8 9 2 6 9 9 8 8 13 14 13 11
26 24 7 4 1 1 2 3 6 2 4 2 1 1 4 5 3 2 4 3 3 3 2 2 2 2 1 3 4 9 9 6 7 6 7 8 13 10 8 7 9 13 8 6
19 4 3 2 1 13 2 2 2 2 2 2 2 1 4 2 2 3 3 3 1 4 4 2 4 3 4 4 6 8 11 11 2 5 6 10 9 11 7 7 5 7 6 4
5 5 3 4 14 2 3 2 1 0 2 2 4 5 2 2 1 3 1 1 1 3 5 3 3 3 4 6 7 6 8 10 5 4 3 11 19 16 13 7 7 7 7 5
2 4 4 4 3 3 1 2 2 2 4 2 3 4 4 3 2 2 2 1 2 3 2 3 2 5 6 8 8 4 5 8 4 10 4 10 12 10 9 8 9 8 8 8
1 1 2 2 2 2 4 4 2 2 2 3 1 3 1 4 4 2 2 2 4 1 3 0 5 3 6 7 4 5 7 9 9 7 4 5 8 7 12 9 6 8 10 8
1 0 5 4 3 5 5 4 5 5 3 2 2 1 0 1 3 1 0 3 1 2 3 2 3 2 6 6 5 3 4 6 6 8 6 5 6 6 6 5 4 6 6 5
2 1 4 5 5 4 4 3 1 2 2 3 2 2 2 2 2 1 2 1 0 3 4 4 3 2 3 5 4 2 4 5 5 3 2 3 4 6 5 5 4 3 2 5
3 4 3 4 1 4 3 1 4 2 3 3 3 2 2 2 2 1 1 1 3 4 4 4 2 1 2 3 2 4 4 4 6 3 3 3 3 4 3 4 4 5 5 3
4 4 3 3 4 5 4 1 4 2 3 1 2 1 2 2 1 1 2 4 4 4 5 2 3 3 3 4 4 3 4 3 3 3 3 3 2 2 4 6 4 6 4 4
Wind_Direction
348 351 352 350 347 340 34 359 42 340 46 63 35 179 194 247 256 38 272 219 215 213 254 287 261 218 201 215 170 168 203 158 239 245 214 326 204 232 129 118 282 206 174 269
345 350 355 351 349 345 315 67 269 345 47 125 271 287 282 231 252 231 235 271 227 229 245 264 212 222 247 316 22 177 182 212 202 320 343 334 192 175 123 122 97 203 145 262
350 350 349 352 351 352 123 69 55 340 47 137 141 2 280 280 270 252 213 228 226 242 231 204 260 276 261 335 31 320 112 125 165 210 206 190 31 312 160 130 120 206 222 272
352 352 353 353 354 352 2 26 331 172 270 306 332 175 290 297 283 229 238 280 207 212 252 214 215 229 312 322 348 28 86 102 207 200 191 242 214 238 288 201 175 156 245 208
351 353 357 355 355 2 53 63 25 355 286 312 320 48 304 275 273 227 257 206 264 264 193 197 233 188 242 202 343 63 360 16 195 170 239 28 6 20 16 112 116 53 175 244
350 353 358 0 2 3 29 327 342 102 305 348 47 254 309 287 327 284 239 285 162 75 303 199 209 197 180 217 152 69 69 87 34 291 349 356 5 325 62 56 13 153 205 253
349 352 356 359 8 20 293 271 15 65 279 322 247 309 313 294 291 252 303 350 25 297 335 342 45 48 346 179 189 150 130 102 112 229 12 192 245 22 117 117 15 324 285 192
349 352 354 353 359 3 322 272 78 79 288 236 299 316 273 306 296 292 277 315 273 305 8 57 26 346 24 336 19 13 77 115 128 155 178 272 256 193 182 129 295 319 136 142
349 350 351 351 354 0 25 271 193 106 110 263 331 302 297 299 316 328 299 316 312 12 67 73 129 194 207 290 342 52 70 76 121 114 171 205 229 133 98 168 290 236 166 161
344 345 347 349 353 356 338 281 160 107 196 267 168 259 276 297 346 271 306 334 340 18 38 75 151 237 223 235 189 246 17 17 186 178 231 284 245 278 5 151 224 222 176 161
339 340 342 344 349 356 1 277 278 101 233 272 226 230 224 350 109 110 287 358 342 9 50 79 263 173 243 59 276 268 168 148 209 121 119 266 27 75 186 206 284 194 157 168
334 334 334 336 342 350 2 298 320 49 183 248 251 244 244 211 232 154 276 216 237 207 61 359 330 339 13 172 220 344 6 180 197 167 216 261 307 295 326 160 155 211 125 120
329 328 328 328 331 336 344 278 282 349 319 301 330 255 279 272 215 176 159 276 236 296 173 163 196 338 112 43 279 331 323 134 98 32 305 256 289 313 342 157 143 98 91 127
322 322 322 322 322 323 322 257 243 123 212 324 284 325 312 274 179 190 207 208 5 78 78 101 143 167 167 227 232 184 221 6 344 273 277 274 265 235 176 102 102 112 101 130
318 316 316 317 317 315 288 232 233 225 120 249 283 310 269 293 286 188 179 182 173 108 40 78 239 245 102 328 59 264 202 202 148 235 234 208 245 197 160 150 164 154 136 110
313 312 310 311 311 320 331 12 223 215 172 72 324 297 306 310 324 11 146 162 122 119 145 210 262 255 106 124 236 260 253 244 205 237 256 201 44 86 81 114 135 118 112 124
311 309 308 306 291 174 172 196 214 123 99 81 316 327 288 307 359 12 10 19 28 117 159 200 191 270 99 124 210 303 318 298 290 214 122 53 16 149 118 106 107 108 103 104
310 308 306 303 221 245 319 290 255 142 101 85 319 278 340 3 354 349 354 358 15 10 259 347 239 11 78 187 266 298 283 293 289 272 169 140 117 102 106 121 125 111 113 117
313 310 316 107 30 40 252 10 126 61 133 178 132 233 280 346 343 285 344 41 348 317 27 346 51 326 155 270 308 324 318 296 285 343 69 111 113 108 103 105 101 113 123 130
313 3 39 342 258 316 357 17 354 13 347 54 216 213 274 67 12 305 6 22 23 2 272 332 52 10 284 296 285 283 299 301 292 117 97 108 100 123 124 129 129 137 140 164
23 12 322 300 308 37 42 297 136 239 276 198 237 193 242 295 132 242 152 227 336 23 277 64 339 351 283 301 299 280 291 291 338 342 127 156 145 146 142 140 148 147 156 165
251 285 288 301 343 39 9 256 299 199 234 250 186 241 204 296 116 88 343 102 37 258 306 61 12 259 288 311 304 334 335 330 335 89 11 117 118 126 125 128 125 117 113 107
60 243 292 59 269 39 215 215 257 273 234 251 339 319 10 349 40 67 58 38 243 5 38 226 226 283 311 323 352 28 18 30 17 32 32 36 98 112 123 116 111 122 125 128
306 253 320 175 231 241 200 196 197 228 180 194 157 271 63 334 5 121 26 253 73 25 20 257 266 267 326 331 327 65 39 49 48 19 24 33 66 72 53 61 97 114 121 136
266 201 237 227 239 263 257 237 228 222 163 111 62 29 85 344 339 338 350 304 3 235 229 241 240 294 333 347 334 326 82 88 65 41 30 50 87 80 57 30 31 38 130 152
240 238 280 265 291 301 347 343 261 190 117 85 67 96 57 290 186 296 257 101 239 254 225 243 274 254 270 289 299 252 197 173 124 223 141 122 123 122 85 49 64 73 87 116
250 254 239 237 240 243 256 272 242 145 87 185 119 172 221 136 286 236 177 204 224 236 271 273 248 235 229 280 299 268 257 199 192 197 159 127 108 74 110 106 119 108 102 44